Los Alamos, NM

10:02 PM MST on February 23, 2018 (GMT -0700)
Los Alamos

Weather History for KLAM - February, 2013

Change the Weather History Date:

Monday, February 4, 2013

  Actual Average Record
Temperature  
Mean Temperature 40 °F -  
Max Temperature 47 °F 40 °F 60 °F (1953)
Min Temperature 33 °F 20 °F 4 °F (1979)
Degree Days  
Heating Degree Days 25    
Moisture  
Dew Point 22 °F    
Average Humidity 49    
Maximum Humidity 66    
Minimum Humidity 36    
Precipitation  
Precipitation 0.00 in - - ()
Sea Level Pressure  
Sea Level Pressure 30.07 in    
Wind  
Wind Speed 2 mph (NNE)    
Max Wind Speed 16 mph    
Max Gust Speed 17 mph    
Visibility 10 miles    
Events      
Averages and records for this station are not official NWS values.
T = Trace of Precipitation, MM = Missing Value Source: NWS Daily Summary

Daily Weather History Graph

Daily Weather History Graph

Search for Another Location

Airport or City:

Trip Planner

Search our weather history database for the weather conditions in past years. The results will help you decide how hot, cold, wet, or windy it might be!

Date:

Astronomy

Feb. 04, 2013 Rise Set
Actual Time 7:02 AM MST 5:35 PM MST
Civil Twilight 6:36 AM MST 6:02 PM MST
Nautical Twilight 6:05 AM MST 6:32 PM MST
Astronomical Twilight 5:35 AM MST 7:02 PM MST
Moon 1:39 AM MST (2/4) 12:04 PM MST (2/4)
Length of Visible Light 11h 26m
Length of Day
10h 33m
Last Quarter, 36% of the Moon is Illuminated
Feb 4
Last Quarter
Feb 10
New
Feb 17
First Quarter
Feb 25
Full
Mar 4
Last Quarter

Hourly Weather History & Observations

Time (MST) Temp. Windchill Dew Point Humidity Pressure Visibility Wind Dir Wind Speed Gust Speed Precip Events Conditions
12:15 AM 36.9 °F - 20.1 °F 51% 30.02 in 10.0 mi Calm Calm - N/A   Overcast
12:35 AM 37.4 °F - 20.3 °F 50% 30.02 in 10.0 mi Calm Calm - N/A   Overcast
12:55 AM 35.8 °F - 20.8 °F 55% 30.03 in 10.0 mi Calm Calm - N/A   Mostly Cloudy
1:15 AM 35.6 °F - 21.0 °F 55% 30.03 in 10.0 mi Calm Calm - N/A   Scattered Clouds
1:35 AM 34.2 °F - 21.2 °F 59% 30.04 in 10.0 mi Calm Calm - N/A   Clear
1:55 AM 34.7 °F - 21.2 °F 58% 30.04 in 10.0 mi Calm Calm - N/A   Clear
2:15 AM 34.0 °F - 21.6 °F 60% 30.04 in 10.0 mi Calm Calm - N/A   Clear
3:55 AM 34.2 °F - 21.6 °F 60% 30.05 in 10.0 mi Calm Calm - N/A   Clear
4:15 AM 33.6 °F - 21.7 °F 62% 30.06 in 10.0 mi Calm Calm - N/A   Clear
4:35 AM 33.8 °F - 22.5 °F 63% 30.06 in 10.0 mi Calm Calm - N/A   Clear
4:55 AM 33.3 °F 28.9 °F 22.5 °F 65% 30.07 in 10.0 mi North 4.6 mph - N/A   Clear
5:15 AM 33.3 °F 27.1 °F 23.0 °F 66% 30.07 in 10.0 mi NNW 6.9 mph - N/A   Clear
5:55 AM 35.8 °F 28.8 °F 23.5 °F 61% 30.06 in 10.0 mi North 9.2 mph 17.3 mph N/A   Clear
6:15 AM 36.0 °F 26.3 °F 22.5 °F 58% 30.06 in 10.0 mi North 16.1 mph - N/A   Clear
6:35 AM 36.5 °F 27.4 °F 21.9 °F 56% 30.07 in 10.0 mi North 15.0 mph - N/A   Clear
6:55 AM 34.0 °F 28.8 °F 22.3 °F 62% 30.08 in 10.0 mi NE 5.8 mph - N/A   Clear
7:15 AM 34.3 °F 28.4 °F 21.7 °F 60% 30.09 in 10.0 mi NNE 6.9 mph - N/A   Clear
7:35 AM 34.0 °F 27.2 °F 21.7 °F 61% 30.09 in 10.0 mi North 8.1 mph - N/A   Clear
7:55 AM 34.2 °F 27.5 °F 22.6 °F 63% 30.09 in 10.0 mi NNW 8.1 mph - N/A   Clear
8:15 AM 34.7 °F 29.6 °F 23.2 °F 63% 30.10 in 10.0 mi North 5.8 mph - N/A   Clear
8:35 AM 35.1 °F 31.0 °F 24.1 °F 64% 30.10 in 10.0 mi North 4.6 mph - N/A   Clear
8:55 AM 36.5 °F - 24.4 °F 62% 30.11 in 10.0 mi Calm Calm - N/A   Clear
9:15 AM 37.9 °F - 24.6 °F 59% 30.11 in 10.0 mi Calm Calm - N/A   Clear
9:35 AM 38.5 °F 35.0 °F 25.7 °F 60% 30.12 in 10.0 mi NE 4.6 mph - N/A   Clear
9:55 AM 39.0 °F 34.0 °F 25.7 °F 59% 30.13 in 10.0 mi ENE 6.9 mph - N/A   Clear
10:15 AM 39.0 °F 35.7 °F 25.7 °F 59% 30.13 in 10.0 mi East 4.6 mph - N/A   Clear
10:35 AM 39.4 °F - 25.0 °F 56% 30.13 in 10.0 mi Calm Calm - N/A   Clear
10:55 AM 40.3 °F 38.2 °F 25.0 °F 54% 30.13 in 10.0 mi East 3.5 mph - N/A   Clear
11:15 AM 41.2 °F - 24.6 °F 52% 30.13 in 10.0 mi Calm Calm - N/A   Clear
11:35 AM 42.4 °F - 24.6 °F 49% 30.13 in 10.0 mi Calm Calm - N/A   Clear
11:55 AM 43.2 °F 41.5 °F 24.1 °F 47% 30.12 in 10.0 mi ENE 3.5 mph - N/A   Clear
12:15 PM 43.9 °F 41.3 °F 23.7 °F 45% 30.11 in 10.0 mi East 4.6 mph - N/A   Clear
12:35 PM 44.1 °F - 23.5 °F 44% 30.10 in 10.0 mi Calm Calm - N/A   Clear
12:55 PM 44.6 °F - 23.4 °F 43% 30.09 in 10.0 mi Calm Calm - N/A   Clear
1:15 PM 46.4 °F - 23.7 °F 41% 30.07 in 10.0 mi Calm Calm - N/A   Clear
1:35 PM 46.6 °F - 23.4 °F 40% 30.06 in 10.0 mi Calm Calm - N/A   Clear
1:55 PM 47.3 °F - 23.7 °F 40% 30.06 in 10.0 mi Calm Calm - N/A   Clear
2:15 PM 47.5 °F - 23.9 °F 40% 30.05 in 10.0 mi Calm Calm - N/A   Clear
2:35 PM 47.8 °F - 24.3 °F 40% 30.04 in 10.0 mi Calm Calm - N/A   Clear
2:55 PM 47.3 °F - 24.6 °F 41% 30.04 in 10.0 mi Calm Calm - N/A   Clear
3:15 PM 47.8 °F - 25.2 °F 41% 30.04 in 10.0 mi Calm Calm - N/A   Clear
3:35 PM 47.8 °F - 25.2 °F 41% 30.04 in 10.0 mi Calm Calm - N/A   Clear
3:55 PM 47.5 °F - 25.3 °F 42% 30.04 in 10.0 mi Calm Calm - N/A   Clear
4:15 PM 47.8 °F - 25.3 °F 41% 30.04 in 10.0 mi Calm Calm - N/A   Clear
4:35 PM 47.5 °F - 25.0 °F 41% 30.03 in 10.0 mi South 4.6 mph - N/A   Clear
4:55 PM 47.5 °F - 24.4 °F 41% 30.03 in 10.0 mi SSE 3.5 mph - N/A   Clear
5:15 PM 47.3 °F - 24.1 °F 40% 30.03 in 10.0 mi Calm Calm - N/A   Clear
5:35 PM 46.4 °F - 23.2 °F 40% 30.04 in 10.0 mi Calm Calm - N/A   Clear
5:55 PM 46.0 °F - 23.5 °F 41% 30.05 in 10.0 mi Calm Calm - N/A   Clear
6:15 PM 45.0 °F - 23.5 °F 43% 30.05 in 10.0 mi Calm Calm - N/A   Clear
6:35 PM 45.5 °F - 23.4 °F 42% 30.05 in 10.0 mi Calm Calm - N/A   Clear
6:55 PM 44.6 °F - 23.7 °F 44% 30.05 in 10.0 mi Calm Calm - N/A   Clear
7:15 PM 43.3 °F - 21.6 °F 42% 30.06 in 10.0 mi Calm Calm - N/A   Clear
7:35 PM 42.3 °F - 20.8 °F 43% 30.06 in 10.0 mi Calm Calm - N/A   Clear
7:55 PM 41.0 °F - 19.9 °F 43% 30.06 in 10.0 mi Calm Calm - N/A   Clear
8:15 PM 41.0 °F - 16.7 °F 37% 30.07 in 10.0 mi Calm Calm - N/A   Clear
8:35 PM 40.3 °F - 16.3 °F 38% 30.07 in 10.0 mi Calm Calm - N/A   Clear
8:55 PM 40.3 °F - 14.9 °F 36% 30.08 in 10.0 mi Calm Calm - N/A   Clear
9:15 PM 39.4 °F - 15.6 °F 38% 30.08 in 10.0 mi Calm Calm - N/A   Clear
9:35 PM 39.4 °F - 15.3 °F 38% 30.08 in 10.0 mi Calm Calm - N/A   Clear
9:55 PM 38.3 °F - 16.2 °F 41% 30.07 in 10.0 mi Calm Calm - N/A   Clear
10:15 PM 38.3 °F - 15.8 °F 40% 30.07 in 10.0 mi Calm Calm - N/A   Clear
10:35 PM 37.4 °F - 15.8 °F 41% 30.07 in 10.0 mi Calm Calm - N/A   Clear
10:55 PM 36.5 °F - 15.8 °F 43% 30.07 in 10.0 mi Calm Calm - N/A   Clear
11:15 PM 36.0 °F - 16.5 °F 45% 30.08 in 10.0 mi Calm Calm - N/A   Clear
11:35 PM 34.0 °F - 17.2 °F 50% 30.07 in 10.0 mi Calm Calm - N/A   Clear
11:55 PM 35.4 °F - 17.4 °F 48% 30.07 in 10.0 mi Calm Calm - N/A   Clear